{"data":{"norad_id":62587,"epoch":"2026-05-25T01:32:23.107776Z","epoch_age_seconds":69395,"freshness":"FRESH","line1":"1 62587U 25008A   26145.06415634  .00227819  00000+0  17258-2 0  9993","line2":"2 62587  43.0019  26.0130 0001622 271.0323  89.0359 15.70907477 78127","mean_motion":15.70907477,"eccentricity":0.0001622,"inclination_deg":43.0019,"raan_deg":26.013,"arg_perigee_deg":271.0323,"mean_anomaly_deg":89.0359,"bstar":0.0017258,"rev_number":7812,"period_min":91.666760842593,"perigee_km":355.20988053827,"apogee_km":357.39453261688,"semimajor_km":6734.4392065776,"source":"CELESTRAK","updated_at":"2026-05-25T13:38:19.732764Z"}}